Time,TemperatureF,DewpointF,PressureIn,WindDirection,WindDirectionDegrees,WindSpeedMPH,WindSpeedGustMPH,Humidity,HourlyPrecipIn,Conditions,Clouds,dailyrainin,SoftwareType,DateUTC
2013-02-15 00:00:00,38.0,37.0,30.06,West,277,5.0,5.0,96,0.00,,,0.06,Wunderground v.1.15,2013-02-15 00:00:00,
2013-02-15 00:05:00,38.0,37.0,30.06,West,269,4.0,5.0,96,0.00,,,0.00,Wunderground v.1.15,2013-02-15 00:05:00,
2013-02-15 00:15:00,37.9,36.9,30.06,WNW,284,5.0,6.0,96,0.00,,,0.00,Wunderground v.1.15,2013-02-15 00:15:00,
2013-02-15 00:25:00,38.2,37.2,30.06,NW,310,6.0,8.0,96,0.00,,,0.00,Wunderground v.1.15,2013-02-15 00:25:00,
2013-02-15 00:30:00,38.3,37.3,30.06,NW,311,6.0,6.0,96,0.00,,,0.01,Wunderground v.1.15,2013-02-15 00:30:00,
2013-02-15 00:40:00,38.5,37.5,30.06,West,278,5.0,5.0,96,0.00,,,0.01,Wunderground v.1.15,2013-02-15 00:40:00,
2013-02-15 00:50:00,38.6,37.6,30.06,West,277,4.0,4.0,96,0.00,,,0.01,Wunderground v.1.15,2013-02-15 00:50:00,
2013-02-15 00:55:00,38.6,37.6,30.06,West,277,4.0,4.0,96,0.00,,,0.01,Wunderground v.1.15,2013-02-15 00:55:00,
2013-02-15 01:05:00,38.7,37.7,30.06,WNW,286,4.0,4.0,96,0.00,,,0.01,Wunderground v.1.15,2013-02-15 01:05:00,
2013-02-15 01:15:00,38.6,37.6,30.06,WNW,286,3.0,3.0,96,0.00,,,0.01,Wunderground v.1.15,2013-02-15 01:15:00,
2013-02-15 01:25:00,38.5,37.5,30.06,WNW,286,2.0,2.0,96,0.00,,,0.01,Wunderground v.1.15,2013-02-15 01:25:00,
2013-02-15 01:30:00,38.4,37.4,30.06,WNW,286,1.0,2.0,96,0.00,,,0.01,Wunderground v.1.15,2013-02-15 01:30:00,
2013-02-15 01:40:00,38.2,37.2,30.06,WNW,286,3.0,3.0,96,0.00,,,0.01,Wunderground v.1.15,2013-02-15 01:40:00,
2013-02-15 01:50:00,38.0,37.0,30.06,WNW,286,3.0,3.0,96,0.00,,,0.01,Wunderground v.1.15,2013-02-15 01:50:00,
2013-02-15 02:00:00,37.9,36.9,30.06,WNW,286,2.0,2.0,96,0.00,,,0.01,Wunderground v.1.15,2013-02-15 02:00:00,
2013-02-15 02:05:00,37.9,36.9,30.06,WNW,286,1.0,2.0,96,0.00,,,0.01,Wunderground v.1.15,2013-02-15 02:05:00,
2013-02-15 02:15:00,37.7,36.7,30.06,WNW,286,1.0,2.0,96,0.00,,,0.01,Wunderground v.1.15,2013-02-15 02:15:00,
2013-02-15 02:20:00,37.6,36.6,30.06,WNW,286,2.0,3.0,96,0.00,,,0.01,Wunderground v.1.15,2013-02-15 02:20:00,
2013-02-15 02:30:00,37.7,36.7,30.06,WNW,287,4.0,4.0,96,0.00,,,0.01,Wunderground v.1.15,2013-02-15 02:30:00,
2013-02-15 02:40:00,37.7,36.7,30.06,WNW,286,3.0,3.0,96,0.00,,,0.01,Wunderground v.1.15,2013-02-15 02:40:00,
2013-02-15 02:45:00,37.6,36.6,30.06,WNW,287,3.0,3.0,96,0.00,,,0.01,Wunderground v.1.15,2013-02-15 02:45:00,
2013-02-15 02:55:00,37.4,36.4,30.06,WNW,282,4.0,5.0,96,0.00,,,0.01,Wunderground v.1.15,2013-02-15 02:55:00,
2013-02-15 03:05:00,37.2,36.2,30.06,West,281,4.0,4.0,96,0.00,,,0.01,Wunderground v.1.15,2013-02-15 03:05:00,
2013-02-15 03:15:00,37.1,36.1,30.06,West,281,2.0,3.0,96,0.00,,,0.01,Wunderground v.1.15,2013-02-15 03:15:00,
2013-02-15 03:25:00,36.7,35.7,30.06,WSW,254,2.0,4.0,96,0.00,,,0.01,Wunderground v.1.15,2013-02-15 03:25:00,
2013-02-15 03:35:00,36.4,35.4,30.06,WSW,257,3.0,3.0,96,0.00,,,0.01,Wunderground v.1.15,2013-02-15 03:35:00,
2013-02-15 03:45:00,36.5,35.5,30.06,West,281,3.0,6.0,96,0.00,,,0.01,Wunderground v.1.15,2013-02-15 03:45:00,
2013-02-15 03:55:00,36.4,35.4,30.06,West,281,1.0,3.0,96,0.00,,,0.01,Wunderground v.1.15,2013-02-15 03:55:00,
2013-02-15 04:05:00,36.1,35.1,30.06,West,263,1.0,2.0,96,0.00,,,0.01,Wunderground v.1.15,2013-02-15 04:05:00,
2013-02-15 04:15:00,35.9,34.9,30.06,West,263,0.0,0.0,96,0.00,,,0.01,Wunderground v.1.15,2013-02-15 04:15:00,
2013-02-15 04:25:00,35.5,34.5,30.06,West,263,0.0,0.0,96,0.00,,,0.01,Wunderground v.1.15,2013-02-15 04:25:00,
2013-02-15 04:35:00,35.1,33.8,30.06,West,263,1.0,3.0,95,0.00,,,0.01,Wunderground v.1.15,2013-02-15 04:35:00,
2013-02-15 04:45:00,35.0,34.0,30.06,WSW,252,2.0,3.0,96,0.00,,,0.01,Wunderground v.1.15,2013-02-15 04:45:00,
2013-02-15 04:55:00,35.3,34.3,30.06,SW,234,3.0,3.0,96,0.00,,,0.01,Wunderground v.1.15,2013-02-15 04:55:00,
2013-02-15 05:00:00,35.5,34.5,30.06,SW,234,3.0,3.0,96,0.00,,,0.01,Wunderground v.1.15,2013-02-15 05:00:00,
2013-02-15 05:05:00,35.5,34.5,30.06,SW,234,2.0,4.0,96,0.00,,,0.01,Wunderground v.1.15,2013-02-15 05:05:00,
2013-02-15 05:10:00,35.5,34.5,30.06,SW,234,2.0,2.0,96,0.00,,,0.01,Wunderground v.1.15,2013-02-15 05:10:00,
2013-02-15 05:20:00,35.5,34.5,30.06,SW,234,1.0,1.0,96,0.00,,,0.01,Wunderground v.1.15,2013-02-15 05:20:00,
2013-02-15 05:30:00,35.4,34.4,30.06,SW,234,0.0,0.0,96,0.00,,,0.01,Wunderground v.1.15,2013-02-15 05:30:00,
2013-02-15 05:40:00,35.3,34.3,30.07,SW,234,0.0,0.0,96,0.00,,,0.01,Wunderground v.1.15,2013-02-15 05:40:00,
2013-02-15 05:50:00,35.2,34.2,30.07,SW,234,0.0,0.0,96,0.00,,,0.01,Wunderground v.1.15,2013-02-15 05:50:00,
2013-02-15 06:00:00,35.0,34.0,30.07,SW,234,0.0,0.0,96,0.00,,,0.01,Wunderground v.1.15,2013-02-15 06:00:00,
2013-02-15 06:05:00,35.0,34.0,30.07,SW,234,0.0,0.0,96,0.00,,,0.01,Wunderground v.1.15,2013-02-15 06:05:00,
2013-02-15 06:15:00,34.8,33.8,30.07,SW,234,0.0,0.0,96,0.00,,,0.01,Wunderground v.1.15,2013-02-15 06:15:00,
2013-02-15 06:25:00,34.7,33.7,30.07,SW,234,0.0,0.0,96,0.00,,,0.01,Wunderground v.1.15,2013-02-15 06:25:00,
2013-02-15 06:35:00,34.8,33.8,30.07,SW,234,2.0,4.0,96,0.00,,,0.01,Wunderground v.1.15,2013-02-15 06:35:00,
2013-02-15 06:45:00,35.0,34.0,30.07,SW,234,3.0,3.0,96,0.00,,,0.01,Wunderground v.1.15,2013-02-15 06:45:00,
2013-02-15 06:55:00,35.1,34.1,30.07,SW,234,1.0,2.0,96,0.00,,,0.01,Wunderground v.1.15,2013-02-15 06:55:00,
2013-02-15 07:05:00,35.1,34.1,30.08,SW,234,0.0,0.0,96,0.00,,,0.01,Wunderground v.1.15,2013-02-15 07:05:00,
2013-02-15 07:15:00,35.0,34.0,30.08,SW,234,0.0,1.0,96,0.00,,,0.01,Wunderground v.1.15,2013-02-15 07:15:00,
2013-02-15 07:20:00,35.0,34.0,30.08,SW,234,0.0,1.0,96,0.00,,,0.01,Wunderground v.1.15,2013-02-15 07:20:00,
2013-02-15 07:30:00,34.9,33.9,30.08,SW,234,0.0,0.0,96,0.00,,,0.01,Wunderground v.1.15,2013-02-15 07:30:00,
2013-02-15 07:35:00,34.8,33.8,30.08,SW,234,0.0,0.0,96,0.00,,,0.01,Wunderground v.1.15,2013-02-15 07:35:00,
2013-02-15 07:45:00,34.8,33.8,30.08,SSW,198,0.0,0.0,96,0.00,,,0.01,Wunderground v.1.15,2013-02-15 07:45:00,
2013-02-15 07:55:00,34.7,33.7,30.08,SSW,198,0.0,0.0,96,0.00,,,0.01,Wunderground v.1.15,2013-02-15 07:55:00,
2013-02-15 08:00:00,34.7,33.7,30.08,SSW,198,0.0,0.0,96,0.00,,,0.01,Wunderground v.1.15,2013-02-15 08:00:00,
2013-02-15 08:05:00,34.6,33.6,30.09,SSW,198,0.0,0.0,96,0.00,,,0.01,Wunderground v.1.15,2013-02-15 08:05:00,
2013-02-15 08:15:00,34.6,33.6,30.09,SSW,198,0.0,0.0,96,0.00,,,0.01,Wunderground v.1.15,2013-02-15 08:15:00,
2013-02-15 08:25:00,34.7,33.7,30.09,SW,214,0.0,0.0,96,0.00,,,0.01,Wunderground v.1.15,2013-02-15 08:25:00,
2013-02-15 08:30:00,34.8,34.0,30.09,SSW,213,0.0,0.0,97,0.00,,,0.01,Wunderground v.1.15,2013-02-15 08:30:00,
2013-02-15 08:40:00,35.1,34.1,30.09,SSW,213,0.0,0.0,96,0.00,,,0.01,Wunderground v.1.15,2013-02-15 08:40:00,
2013-02-15 08:50:00,35.4,34.6,30.09,SSW,213,0.0,0.0,97,0.00,,,0.01,Wunderground v.1.15,2013-02-15 08:50:00,
2013-02-15 08:55:00,35.5,34.7,30.09,SSW,211,0.0,0.0,97,0.00,,,0.01,Wunderground v.1.15,2013-02-15 08:55:00,
2013-02-15 09:05:00,35.9,35.1,30.09,SSW,211,0.0,0.0,97,0.00,,,0.01,Wunderground v.1.15,2013-02-15 09:05:00,
2013-02-15 09:15:00,36.6,35.8,30.09,SSW,211,0.0,0.0,97,0.00,,,0.01,Wunderground v.1.15,2013-02-15 09:15:00,
2013-02-15 09:25:00,37.0,36.2,30.09,SW,231,0.0,0.0,97,0.00,,,0.01,Wunderground v.1.15,2013-02-15 09:25:00,
2013-02-15 09:35:00,37.8,37.0,30.09,SW,230,0.0,0.0,97,0.00,,,0.01,Wunderground v.1.15,2013-02-15 09:35:00,
2013-02-15 09:45:00,38.4,37.6,30.09,SW,231,0.0,0.0,97,0.00,,,0.01,Wunderground v.1.15,2013-02-15 09:45:00,
2013-02-15 09:55:00,38.9,38.1,30.09,SW,231,0.0,0.0,97,0.00,,,0.01,Wunderground v.1.15,2013-02-15 09:55:00,
2013-02-15 10:05:00,39.6,38.8,30.09,SW,231,0.0,0.0,97,0.00,,,0.01,Wunderground v.1.15,2013-02-15 10:05:00,
2013-02-15 10:15:00,40.2,39.4,30.09,SW,230,0.0,0.0,97,0.00,,,0.01,Wunderground v.1.15,2013-02-15 10:15:00,
2013-02-15 10:25:00,40.9,40.4,30.09,SW,235,1.0,1.0,98,0.00,,,0.01,Wunderground v.1.15,2013-02-15 10:25:00,
2013-02-15 10:35:00,41.3,40.8,30.09,SW,227,1.0,3.0,98,0.00,,,0.01,Wunderground v.1.15,2013-02-15 10:35:00,
2013-02-15 10:40:00,41.5,41.0,30.09,SSW,209,1.0,1.0,98,0.00,,,0.01,Wunderground v.1.15,2013-02-15 10:40:00,
2013-02-15 10:50:00,41.8,41.3,30.09,South,171,2.0,3.0,98,0.00,,,0.01,Wunderground v.1.15,2013-02-15 10:50:00,
2013-02-15 11:00:00,41.8,41.0,30.09,SSE,154,3.0,3.0,97,0.00,,,0.01,Wunderground v.1.15,2013-02-15 11:00:00,
2013-02-15 11:05:00,41.8,41.0,30.09,SSE,155,3.0,3.0,97,0.00,,,0.01,Wunderground v.1.15,2013-02-15 11:05:00,
2013-02-15 11:15:00,42.0,41.2,30.09,SSE,155,3.0,4.0,97,0.00,,,0.01,Wunderground v.1.15,2013-02-15 11:15:00,
2013-02-15 11:25:00,42.3,41.5,30.09,SSE,155,3.0,3.0,97,0.00,,,0.01,Wunderground v.1.15,2013-02-15 11:25:00,
2013-02-15 11:35:00,42.7,41.9,30.09,SSE,149,3.0,4.0,97,0.00,,,0.01,Wunderground v.1.15,2013-02-15 11:35:00,
2013-02-15 11:45:00,43.1,42.0,30.09,SSE,156,4.0,4.0,96,0.00,,,0.01,Wunderground v.1.15,2013-02-15 11:45:00,
2013-02-15 11:55:00,43.4,42.1,30.09,SSE,161,5.0,7.0,95,0.00,,,0.01,Wunderground v.1.15,2013-02-15 11:55:00,
2013-02-15 12:05:00,43.8,41.9,30.09,SSE,167,5.0,8.0,93,0.00,,,0.01,Wunderground v.1.15,2013-02-15 12:05:00,
2013-02-15 12:15:00,44.3,41.6,30.09,SSE,168,6.0,7.0,90,0.00,,,0.01,Wunderground v.1.15,2013-02-15 12:15:00,
2013-02-15 12:25:00,44.7,41.4,30.09,SSE,163,6.0,7.0,88,0.00,,,0.01,Wunderground v.1.15,2013-02-15 12:25:00,
2013-02-15 12:35:00,45.1,40.9,30.09,SSE,156,8.0,10.0,85,0.00,,,0.01,Wunderground v.1.15,2013-02-15 12:35:00,
2013-02-15 12:45:00,45.3,40.7,30.09,SSE,159,7.0,8.0,84,0.00,,,0.01,Wunderground v.1.15,2013-02-15 12:45:00,
2013-02-15 12:55:00,45.6,41.4,30.08,SSE,159,7.0,7.0,85,0.00,,,0.01,Wunderground v.1.15,2013-02-15 12:55:00,
2013-02-15 13:05:00,45.8,41.5,30.08,SSE,157,8.0,12.0,85,0.00,,,0.01,Wunderground v.1.15,2013-02-15 13:05:00,
2013-02-15 13:15:00,45.7,41.4,30.08,South,178,10.0,12.0,85,0.00,,,0.01,Wunderground v.1.15,2013-02-15 13:15:00,
2013-02-15 13:20:00,45.7,41.8,30.08,SSE,160,8.0,8.0,86,0.00,,,0.01,Wunderground v.1.15,2013-02-15 13:20:00,
2013-02-15 13:30:00,45.9,42.2,30.08,SE,140,8.0,8.0,87,0.00,,,0.01,Wunderground v.1.15,2013-02-15 13:30:00,
2013-02-15 13:40:00,46.1,42.4,30.08,SSE,159,8.0,10.0,87,0.00,,,0.01,Wunderground v.1.15,2013-02-15 13:40:00,
2013-02-15 13:50:00,46.1,42.1,30.08,SSE,163,9.0,9.0,86,0.00,,,0.01,Wunderground v.1.15,2013-02-15 13:50:00,
2013-02-15 14:00:00,46.3,42.3,30.08,SSE,159,9.0,9.0,86,0.00,,,0.01,Wunderground v.1.15,2013-02-15 14:00:00,
2013-02-15 14:05:00,46.4,42.4,30.07,SSE,168,9.0,9.0,86,0.00,,,0.01,Wunderground v.1.15,2013-02-15 14:05:00,
2013-02-15 14:15:00,46.7,42.7,30.07,SSE,164,9.0,9.0,86,0.00,,,0.01,Wunderground v.1.15,2013-02-15 14:15:00,
2013-02-15 14:25:00,46.7,42.4,30.06,SSE,159,10.0,14.0,85,0.00,,,0.01,Wunderground v.1.15,2013-02-15 14:25:00,
2013-02-15 14:35:00,46.5,42.2,30.06,South,176,10.0,10.0,85,0.00,,,0.01,Wunderground v.1.15,2013-02-15 14:35:00,
2013-02-15 14:45:00,46.5,42.2,30.06,SSE,164,9.0,9.0,85,0.00,,,0.01,Wunderground v.1.15,2013-02-15 14:45:00,
2013-02-15 14:55:00,46.6,42.6,30.06,SSE,156,10.0,12.0,86,0.00,,,0.01,Wunderground v.1.15,2013-02-15 14:55:00,
2013-02-15 15:05:00,46.9,42.3,30.06,South,182,10.0,10.0,84,0.00,,,0.01,Wunderground v.1.15,2013-02-15 15:05:00,
2013-02-15 15:15:00,46.9,42.3,30.06,SSE,167,9.0,10.0,84,0.00,,,0.01,Wunderground v.1.15,2013-02-15 15:15:00,
2013-02-15 15:25:00,46.9,42.3,30.06,SSE,167,10.0,10.0,84,0.00,,,0.01,Wunderground v.1.15,2013-02-15 15:25:00,
2013-02-15 15:30:00,47.0,42.7,30.06,SSE,165,9.0,9.0,85,0.00,,,0.01,Wunderground v.1.15,2013-02-15 15:30:00,
2013-02-15 15:40:00,47.1,42.8,30.06,South,180,9.0,13.0,85,0.00,,,0.01,Wunderground v.1.15,2013-02-15 15:40:00,
2013-02-15 15:50:00,46.8,42.5,30.06,South,175,9.0,9.0,85,0.00,,,0.01,Wunderground v.1.15,2013-02-15 15:50:00,
2013-02-15 16:00:00,46.7,42.7,30.06,SSE,157,9.0,9.0,86,0.00,,,0.01,Wunderground v.1.15,2013-02-15 16:00:00,
2013-02-15 16:05:00,46.7,42.7,30.06,SSE,160,8.0,9.0,86,0.00,,,0.01,Wunderground v.1.15,2013-02-15 16:05:00,
2013-02-15 16:15:00,46.6,42.9,30.06,South,175,8.0,9.0,87,0.00,,,0.01,Wunderground v.1.15,2013-02-15 16:15:00,
2013-02-15 16:20:00,46.7,43.0,30.06,South,184,8.0,8.0,87,0.00,,,0.01,Wunderground v.1.15,2013-02-15 16:20:00,
2013-02-15 16:30:00,46.5,42.8,30.06,South,176,10.0,14.0,87,0.00,,,0.01,Wunderground v.1.15,2013-02-15 16:30:00,
2013-02-15 16:40:00,46.5,42.8,30.06,South,188,9.0,12.0,87,0.00,,,0.01,Wunderground v.1.15,2013-02-15 16:40:00,
2013-02-15 16:45:00,46.5,43.1,30.06,South,174,9.0,15.0,88,0.00,,,0.01,Wunderground v.1.15,2013-02-15 16:45:00,
2013-02-15 16:55:00,46.3,42.9,30.06,SSE,161,9.0,9.0,88,0.00,,,0.01,Wunderground v.1.15,2013-02-15 16:55:00,
2013-02-15 17:05:00,46.2,43.1,30.06,South,169,9.0,9.0,89,0.00,,,0.01,Wunderground v.1.15,2013-02-15 17:05:00,
2013-02-15 17:15:00,46.0,43.2,30.06,SSE,164,8.0,8.0,90,0.00,,,0.01,Wunderground v.1.15,2013-02-15 17:15:00,
2013-02-15 17:20:00,45.9,43.1,30.06,South,175,8.0,8.0,90,0.00,,,0.01,Wunderground v.1.15,2013-02-15 17:20:00,
2013-02-15 17:30:00,45.8,43.3,30.06,SSE,160,8.0,8.0,91,0.00,,,0.01,Wunderground v.1.15,2013-02-15 17:30:00,
2013-02-15 17:40:00,45.6,43.4,30.06,South,173,9.0,9.0,92,0.00,,,0.01,Wunderground v.1.15,2013-02-15 17:40:00,
2013-02-15 17:50:00,45.4,43.5,30.06,SSE,161,9.0,9.0,93,0.00,,,0.01,Wunderground v.1.15,2013-02-15 17:50:00,
2013-02-15 18:00:00,45.1,43.2,30.06,SSE,167,9.0,9.0,93,0.00,,,0.01,Wunderground v.1.15,2013-02-15 18:00:00,
2013-02-15 18:05:00,45.0,43.1,30.06,SSE,167,8.0,9.0,93,0.00,,,0.01,Wunderground v.1.15,2013-02-15 18:05:00,
2013-02-15 18:15:00,44.8,43.2,30.06,SSE,167,9.0,10.0,94,0.00,,,0.01,Wunderground v.1.15,2013-02-15 18:15:00,
2013-02-15 18:25:00,44.6,43.0,30.06,South,186,10.0,11.0,94,0.00,,,0.01,Wunderground v.1.15,2013-02-15 18:25:00,
2013-02-15 18:30:00,44.5,43.2,30.06,South,171,10.0,10.0,95,0.00,,,0.01,Wunderground v.1.15,2013-02-15 18:30:00,
2013-02-15 18:40:00,44.4,43.1,30.06,SSE,159,10.0,10.0,95,0.00,,,0.01,Wunderground v.1.15,2013-02-15 18:40:00,
2013-02-15 18:50:00,44.4,43.1,30.06,SSE,157,8.0,9.0,95,0.00,,,0.01,Wunderground v.1.15,2013-02-15 18:50:00,
2013-02-15 19:00:00,44.3,43.0,30.06,SSE,157,9.0,9.0,95,0.00,,,0.01,Wunderground v.1.15,2013-02-15 19:00:00,
2013-02-15 19:05:00,44.3,43.0,30.06,SSE,161,9.0,10.0,95,0.00,,,0.01,Wunderground v.1.15,2013-02-15 19:05:00,
2013-02-15 19:15:00,44.3,43.2,30.06,SSE,157,9.0,10.0,96,0.00,,,0.02,Wunderground v.1.15,2013-02-15 19:15:00,
2013-02-15 19:20:00,44.3,43.2,30.06,SSE,167,9.0,9.0,96,0.00,,,0.02,Wunderground v.1.15,2013-02-15 19:20:00,
2013-02-15 19:30:00,44.3,43.2,30.06,SSE,158,8.0,9.0,96,0.07,,,0.02,Wunderground v.1.15,2013-02-15 19:30:00,
2013-02-15 19:40:00,44.3,43.2,30.06,SSE,161,9.0,9.0,96,0.00,,,0.02,Wunderground v.1.15,2013-02-15 19:40:00,
2013-02-15 19:50:00,44.4,43.3,30.06,South,175,9.0,11.0,96,0.00,,,0.03,Wunderground v.1.15,2013-02-15 19:50:00,
2013-02-15 20:00:00,44.5,43.7,30.06,SE,137,10.0,10.0,97,0.00,,,0.03,Wunderground v.1.15,2013-02-15 20:00:00,
2013-02-15 20:05:00,44.6,43.8,30.06,SSE,167,9.0,10.0,97,0.00,,,0.03,Wunderground v.1.15,2013-02-15 20:05:00,
2013-02-15 20:15:00,44.6,43.8,30.06,SSE,153,9.0,9.0,97,0.00,,,0.03,Wunderground v.1.15,2013-02-15 20:15:00,
2013-02-15 20:20:00,44.6,43.8,30.06,SSE,152,9.0,9.0,97,0.00,,,0.03,Wunderground v.1.15,2013-02-15 20:20:00,
2013-02-15 20:30:00,44.6,43.8,30.06,SE,138,8.0,8.0,97,0.00,,,0.03,Wunderground v.1.15,2013-02-15 20:30:00,
2013-02-15 20:40:00,44.7,43.9,30.06,SE,144,8.0,10.0,97,0.00,,,0.03,Wunderground v.1.15,2013-02-15 20:40:00,
2013-02-15 20:50:00,44.8,44.0,30.05,SSE,159,8.0,9.0,97,0.00,,,0.04,Wunderground v.1.15,2013-02-15 20:50:00,
2013-02-15 21:00:00,44.9,44.1,30.05,SE,145,8.0,10.0,97,0.00,,,0.04,Wunderground v.1.15,2013-02-15 21:00:00,
2013-02-15 21:05:00,44.9,44.1,30.05,SE,146,8.0,12.0,97,0.00,,,0.04,Wunderground v.1.15,2013-02-15 21:05:00,
2013-02-15 21:15:00,45.0,44.2,30.05,SE,129,9.0,10.0,97,0.00,,,0.04,Wunderground v.1.15,2013-02-15 21:15:00,
2013-02-15 21:25:00,45.1,44.3,30.05,SSE,160,9.0,10.0,97,0.00,,,0.04,Wunderground v.1.15,2013-02-15 21:25:00,
2013-02-15 21:35:00,45.2,44.4,30.05,SE,128,9.0,10.0,97,0.00,,,0.04,Wunderground v.1.15,2013-02-15 21:35:00,
2013-02-15 21:45:00,45.2,44.7,30.05,SE,130,10.0,11.0,98,0.00,,,0.04,Wunderground v.1.15,2013-02-15 21:45:00,
2013-02-15 21:55:00,45.3,44.5,30.05,SSE,153,9.0,11.0,97,0.00,,,0.05,Wunderground v.1.15,2013-02-15 21:55:00,
2013-02-15 22:05:00,45.4,44.9,30.05,SSE,153,10.0,11.0,98,0.00,,,0.05,Wunderground v.1.15,2013-02-15 22:05:00,
2013-02-15 22:15:00,45.4,44.9,30.05,SE,128,8.0,9.0,98,0.00,,,0.05,Wunderground v.1.15,2013-02-15 22:15:00,
2013-02-15 22:25:00,45.5,45.0,30.05,SSE,159,8.0,8.0,98,0.00,,,0.05,Wunderground v.1.15,2013-02-15 22:25:00,
2013-02-15 22:35:00,45.6,45.1,30.04,SSE,149,9.0,9.0,98,0.00,,,0.05,Wunderground v.1.15,2013-02-15 22:35:00,
2013-02-15 22:45:00,45.6,45.1,30.04,South,169,9.0,11.0,98,0.00,,,0.05,Wunderground v.1.15,2013-02-15 22:45:00,
2013-02-15 22:55:00,45.6,45.1,30.04,SE,142,9.0,9.0,98,0.00,,,0.05,Wunderground v.1.15,2013-02-15 22:55:00,
2013-02-15 23:05:00,45.7,45.2,30.03,SE,139,9.0,9.0,98,0.00,,,0.05,Wunderground v.1.15,2013-02-15 23:05:00,
2013-02-15 23:15:00,45.7,45.2,30.03,SE,146,10.0,10.0,98,0.00,,,0.06,Wunderground v.1.15,2013-02-15 23:15:00,
2013-02-15 23:20:00,45.8,45.3,30.03,SE,134,10.0,11.0,98,0.00,,,0.06,Wunderground v.1.15,2013-02-15 23:20:00,
2013-02-15 23:25:00,45.8,45.3,30.03,SSE,148,10.0,11.0,98,0.00,,,0.06,Wunderground v.1.15,2013-02-15 23:25:00,
2013-02-15 23:35:00,45.9,45.4,30.03,SE,141,10.0,11.0,98,0.00,,,0.06,Wunderground v.1.15,2013-02-15 23:35:00,
2013-02-15 23:45:00,45.9,45.4,30.03,SE,140,9.0,9.0,98,0.00,,,0.06,Wunderground v.1.15,2013-02-15 23:45:00,
2013-02-15 23:55:00,46.0,45.5,30.03,SSE,150,9.0,10.0,98,0.00,,,0.06,Wunderground v.1.15,2013-02-15 23:55:00,